�������l�o���
Date,Time,MP-1(��Sv/h),MP-2(��Sv/h),MP-3(��Sv/h),MP-4(��Sv/h),MP-5(��Sv/h),MP-6(��Sv/h),MP-7(��Sv/h),MP-8(��Sv/h),����,����(m/s),���J
2022/06/21,00:00,0.584,0.859,0.542,1.021,0.727,0.345,0.597,0.562,�k,3.6,��
2022/06/21,00:10,0.584,0.857,0.542,1.021,0.725,0.346,0.595,0.563,�k�k��,3.7,��
2022/06/21,00:20,0.585,0.857,0.542,1.020,0.726,0.344,0.596,0.563,�k�k��,3.0,��
2022/06/21,00:30,0.584,0.857,0.541,1.021,0.728,0.346,0.595,0.562,�k�k��,3.0,��
2022/06/21,00:40,0.585,0.859,0.540,1.021,0.727,0.347,0.596,0.562,�k��,2.6,��
2022/06/21,00:50,0.586,0.858,0.540,1.022,0.727,0.347,0.595,0.563,�k��,2.9,��
2022/06/21,01:00,0.585,0.859,0.540,1.022,0.726,0.346,0.597,0.563,�k��,2.9,��
2022/06/21,01:10,0.586,0.859,0.541,1.023,0.728,0.346,0.596,0.561,���k��,1.7,��
2022/06/21,01:20,0.583,0.859,0.541,1.020,0.725,0.346,0.597,0.562,��,0.9,��
2022/06/21,01:30,0.584,0.860,0.543,1.021,0.728,0.345,0.596,0.563,���쐼,0.6,��
2022/06/21,01:40,0.585,0.857,0.541,1.022,0.726,0.347,0.597,0.562,���쐼,1.5,��
2022/06/21,01:50,0.584,0.857,0.541,1.022,0.725,0.347,0.596,0.562,��,2.2,��
2022/06/21,02:00,0.584,0.858,0.542,1.021,0.727,0.347,0.597,0.564,�k��,1.4,��
2022/06/21,02:10,0.586,0.860,0.542,1.021,0.727,0.346,0.598,0.563,�k��,2.6,��
2022/06/21,02:20,0.583,0.859,0.543,1.021,0.727,0.346,0.596,0.561,�k��,3.3,��
2022/06/21,02:30,0.585,0.859,0.540,1.022,0.727,0.347,0.595,0.563,�k��,3.1,��
2022/06/21,02:40,0.586,0.858,0.541,1.022,0.729,0.348,0.597,0.562,�k�k��,3.7,��
2022/06/21,02:50,0.585,0.860,0.542,1.023,0.727,0.346,0.597,0.563,�k��,3.2,��
2022/06/21,03:00,0.584,0.859,0.542,1.023,0.728,0.348,0.597,0.563,�k��,4.4,��
2022/06/21,03:10,0.586,0.859,0.541,1.023,0.728,0.348,0.597,0.564,�k��,4.4,��
2022/06/21,03:20,0.585,0.858,0.541,1.022,0.726,0.345,0.597,0.562,���k��,2.9,��
2022/06/21,03:30,0.585,0.859,0.542,1.021,0.728,0.347,0.597,0.564,��,1.9,��
2022/06/21,03:40,0.587,0.859,0.543,1.022,0.726,0.347,0.596,0.562,��,1.2,��
2022/06/21,03:50,0.585,0.857,0.542,1.023,0.726,0.348,0.598,0.562,�k��,1.4,��
2022/06/21,04:00,0.588,0.858,0.540,1.022,0.727,0.348,0.597,0.561,�k��,1.1,��
2022/06/21,04:10,0.585,0.856,0.541,1.019,0.725,0.348,0.596,0.562,�k�k��,0.8,��
2022/06/21,04:20,0.585,0.855,0.540,1.021,0.727,0.348,0.599,0.562,�k��,1.2,��
2022/06/21,04:30,0.586,0.858,0.540,1.024,0.726,0.346,0.596,0.563,�k,1.5,��
2022/06/21,04:40,0.585,0.857,0.540,1.022,0.726,0.347,0.597,0.563,�k,2.3,��
2022/06/21,04:50,0.585,0.856,0.540,1.024,0.728,0.347,0.597,0.564,�k��,1.5,��
2022/06/21,05:00,0.584,0.859,0.541,1.020,0.728,0.347,0.597,0.563,���k��,0.9,��
2022/06/21,05:10,0.585,0.857,0.542,1.020,0.727,0.348,0.598,0.563,-,CALM,��
2022/06/21,05:20,0.585,0.860,0.541,1.023,0.728,0.348,0.597,0.562,�쓌,0.9,��
2022/06/21,05:30,0.584,0.858,0.542,1.023,0.726,0.348,0.598,0.562,�쓌,0.8,��
2022/06/21,05:40,0.584,0.859,0.541,1.022,0.727,0.348,0.598,0.563,��쓌,1.1,��
2022/06/21,05:50,0.582,0.859,0.540,1.021,0.728,0.347,0.596,0.562,���k��,0.9,��
2022/06/21,06:00,0.583,0.858,0.541,1.021,0.727,0.347,0.598,0.563,���쓌,0.6,��
2022/06/21,06:10,0.582,0.857,0.539,1.022,0.726,0.346,0.598,0.562,���쓌,0.6,��
2022/06/21,06:20,0.584,0.854,0.540,1.022,0.725,0.345,0.597,0.561,��,0.6,��
2022/06/21,06:30,0.583,0.855,0.539,1.022,0.727,0.345,0.597,0.563,-,CALM,��
2022/06/21,06:40,0.582,0.854,0.539,1.021,0.725,0.343,0.597,0.563,���k��,0.9,��
2022/06/21,06:50,0.583,0.854,0.537,1.020,0.725,0.344,0.598,0.563,�k��,0.9,��
2022/06/21,07:00,0.583,0.854,0.540,1.021,0.726,0.343,0.597,0.563,�k��,0.9,��
2022/06/21,07:10,0.583,0.856,0.538,1.021,0.725,0.344,0.596,0.562,��,1.4,��
2022/06/21,07:20,0.580,0.855,0.540,1.020,0.723,0.344,0.595,0.561,���쓌,1.4,��
2022/06/21,07:30,0.581,0.855,0.538,1.021,0.724,0.344,0.597,0.562,�쓌,0.9,��
2022/06/21,07:40,0.582,0.856,0.538,1.021,0.722,0.343,0.597,0.560,��쓌,1.4,��
2022/06/21,07:50,0.583,0.856,0.538,1.022,0.726,0.344,0.596,0.562,�쓌,0.9,��
2022/06/21,08:00,0.582,0.856,0.539,1.022,0.725,0.344,0.598,0.562,�쓌,1.5,��
2022/06/21,08:10,0.582,0.855,0.540,1.019,0.726,0.342,0.596,0.561,��쓌,1.4,��
2022/06/21,08:20,0.583,0.856,0.540,1.020,0.726,0.344,0.597,0.559,��쓌,2.0,��
2022/06/21,08:30,0.583,0.856,0.540,1.021,0.724,0.344,0.597,0.560,���쓌,1.1,��
2022/06/21,08:40,0.582,0.855,0.538,1.020,0.725,0.344,0.596,0.561,���쓌,2.0,��
2022/06/21,08:50,0.584,0.854,0.539,1.019,0.726,0.345,0.597,0.561,���쓌,1.1,��
2022/06/21,09:00,0.582,0.852,0.537,1.022,0.726,0.344,0.597,0.559,�쓌,2.0,��
2022/06/21,09:10,0.581,0.854,0.539,1.021,0.724,0.345,0.596,0.561,�쓌,2.5,��
2022/06/21,09:20,0.583,0.857,0.537,1.022,0.726,0.343,0.597,0.561,��,2.3,��
2022/06/21,09:30,0.583,0.855,0.536,1.021,0.725,0.344,0.596,0.560,��,2.8,��
2022/06/21,09:40,0.582,0.856,0.537,1.021,0.727,0.345,0.597,0.561,���쓌,2.2,��
2022/06/21,09:50,0.582,0.856,0.536,1.022,0.726,0.345,0.596,0.560,���k��,2.5,��
2022/06/21,10:00,0.582,0.853,0.536,1.022,0.728,0.344,0.596,0.561,��,2.5,��
2022/06/21,10:10,0.583,0.855,0.537,1.021,0.725,0.345,0.595,0.560,��,2.6,��
2022/06/21,10:20,0.582,0.856,0.539,1.021,0.728,0.344,0.596,0.561,���쓌,3.2,��
2022/06/21,10:30,0.584,0.854,0.538,1.022,0.727,0.343,0.596,0.561,�쓌,3.3,��
2022/06/21,10:40,0.583,0.856,0.538,1.022,0.726,0.343,0.596,0.560,���쓌,3.1,��
2022/06/21,10:50,0.584,0.855,0.539,1.022,0.728,0.346,0.596,0.561,���쓌,3.7,��
2022/06/21,11:00,0.584,0.855,0.538,1.020,0.727,0.345,0.596,0.560,�쓌,3.5,��
2022/06/21,11:10,0.582,0.857,0.537,1.020,0.728,0.346,0.596,0.561,�쓌,3.4,��
2022/06/21,11:20,0.584,0.858,0.535,1.020,0.726,0.346,0.597,0.560,�쓌,3.0,��
2022/06/21,11:30,0.583,0.859,0.534,1.020,0.724,0.346,0.598,0.561,���쓌,2.8,��
2022/06/21,11:40,0.583,0.857,0.536,1.021,0.728,0.346,0.598,0.562,��,2.6,��
2022/06/21,11:50,0.582,0.860,0.539,1.021,0.726,0.344,0.597,0.561,��,2.2,��
2022/06/21,12:00,0.585,0.860,0.539,1.021,0.728,0.345,0.597,0.561,��,2.3,��
2022/06/21,12:10,0.584,0.860,0.540,1.025,0.727,0.344,0.596,0.563,�k��,2.0,��
2022/06/21,12:20,0.585,0.860,0.541,1.020,0.728,0.345,0.597,0.560,���쓌,1.7,��
2022/06/21,12:30,0.583,0.860,0.538,1.020,0.728,0.345,0.597,0.561,���쓌,2.0,��
2022/06/21,12:40,0.585,0.861,0.539,1.022,0.727,0.346,0.597,0.561,���쓌,2.2,��
2022/06/21,12:50,0.584,0.860,0.540,1.020,0.730,0.345,0.597,0.559,��,1.4,��
2022/06/21,13:00,0.584,0.860,0.540,1.023,0.728,0.346,0.598,0.561,�쓌,1.5,��
2022/06/21,13:10,0.584,0.859,0.538,1.021,0.729,0.345,0.598,0.561,���k��,1.5,��
2022/06/21,13:20,0.583,0.858,0.538,1.020,0.729,0.345,0.597,0.561,���k��,2.3,��
2022/06/21,13:30,0.584,0.859,0.538,1.023,0.730,0.345,0.597,0.562,�k��,2.6,��
2022/06/21,13:40,0.581,0.858,0.540,1.022,0.729,0.344,0.596,0.562,�k��,2.6,��
2022/06/21,13:50,0.582,0.857,0.539,1.022,0.728,0.345,0.599,0.561,�k��,2.9,��
2022/06/21,14:00,0.580,0.859,0.539,1.023,0.729,0.344,0.595,0.561,�k��,3.2,��
2022/06/21,14:10,0.580,0.858,0.538,1.020,0.729,0.345,0.598,0.562,�k��,3.1,��
2022/06/21,14:20,0.581,0.859,0.539,1.020,0.729,0.345,0.597,0.561,���k��,3.3,��
2022/06/21,14:30,0.581,0.859,0.539,1.021,0.730,0.344,0.597,0.561,���k��,3.9,��
2022/06/21,14:40,0.581,0.859,0.540,1.021,0.731,0.346,0.597,0.562,���k��,3.3,��
2022/06/21,14:50,0.581,0.859,0.539,1.024,0.730,0.344,0.598,0.563,��,2.9,��
2022/06/21,15:00,0.582,0.861,0.540,1.024,0.729,0.345,0.597,0.560,���쓌,2.0,��
2022/06/21,15:10,0.582,0.859,0.538,1.022,0.730,0.346,0.596,0.560,���k��,1.9,��
2022/06/21,15:20,0.582,0.860,0.539,1.023,0.729,0.345,0.597,0.560,���k��,1.7,��
2022/06/21,15:30,0.580,0.860,0.540,1.023,0.728,0.345,0.596,0.561,�k��,1.9,��
2022/06/21,15:40,0.580,0.860,0.539,1.025,0.728,0.344,0.596,0.561,�k�k��,2.0,��
2022/06/21,15:50,0.582,0.863,0.539,1.026,0.729,0.344,0.596,0.560,���쓌,1.4,��
2022/06/21,16:00,0.583,0.860,0.541,1.023,0.728,0.344,0.597,0.561,�쓌,2.3,��
2022/06/21,16:10,0.582,0.861,0.539,1.022,0.729,0.344,0.596,0.561,��,2.0,��
2022/06/21,16:20,0.582,0.862,0.539,1.021,0.729,0.345,0.595,0.561,���쓌,2.6,��
2022/06/21,16:30,0.582,0.860,0.538,1.026,0.730,0.344,0.596,0.562,�쓌,2.9,��
2022/06/21,16:40,0.583,0.865,0.540,1.022,0.729,0.345,0.596,0.559,�쓌,2.2,��
2022/06/21,16:50,0.583,0.862,0.541,1.025,0.729,0.344,0.596,0.562,�쓌,2.9,��
2022/06/21,17:00,0.585,0.863,0.539,1.023,0.730,0.344,0.595,0.561,���쓌,3.1,��
2022/06/21,17:10,0.584,0.865,0.540,1.024,0.729,0.345,0.596,0.561,���쓌,2.0,��
2022/06/21,17:20,0.585,0.864,0.540,1.025,0.728,0.344,0.594,0.561,��,2.0,��
2022/06/21,17:30,0.584,0.862,0.539,1.025,0.728,0.345,0.596,0.562,���쓌,2.0,��
2022/06/21,17:40,0.584,0.864,0.541,1.027,0.729,0.345,0.597,0.561,���쓌,2.2,��
2022/06/21,17:50,0.586,0.865,0.541,1.025,0.728,0.343,0.596,0.563,�쓌,1.7,��
2022/06/21,18:00,0.584,0.865,0.540,1.024,0.729,0.344,0.598,0.560,���쓌,1.9,��
2022/06/21,18:10,0.585,0.866,0.541,1.027,0.730,0.345,0.596,0.563,��쓌,2.3,��
2022/06/21,18:20,0.585,0.865,0.541,1.028,0.729,0.346,0.598,0.562,�쓌,0.9,��
2022/06/21,18:30,0.585,0.863,0.541,1.027,0.731,0.344,0.597,0.564,�쓌,0.9,��
2022/06/21,18:40,0.587,0.866,0.540,1.026,0.729,0.344,0.600,0.562,��쓌,1.1,��
2022/06/21,18:50,0.586,0.868,0.540,1.027,0.730,0.346,0.598,0.563,��쓌,1.1,��
2022/06/21,19:00,0.587,0.864,0.542,1.028,0.732,0.345,0.598,0.563,-,CALM,��
2022/06/21,19:10,0.585,0.866,0.542,1.027,0.733,0.347,0.598,0.564,-,CALM,��
2022/06/21,19:20,0.585,0.866,0.543,1.030,0.734,0.345,0.600,0.564,-,CALM,��
2022/06/21,19:30,0.587,0.863,0.543,1.026,0.730,0.346,0.598,0.564,��쓌,0.6,��
2022/06/21,19:40,0.585,0.864,0.542,1.029,0.730,0.346,0.598,0.563,-,CALM,��
2022/06/21,19:50,0.586,0.866,0.542,1.027,0.732,0.346,0.599,0.564,-,CALM,��
2022/06/21,20:00,0.587,0.865,0.544,1.028,0.731,0.345,0.598,0.563,�k�k��,1.2,��
2022/06/21,20:10,0.586,0.864,0.541,1.027,0.732,0.346,0.598,0.563,�k,2.2,��
2022/06/21,20:20,0.587,0.865,0.541,1.028,0.734,0.346,0.600,0.563,�k,3.2,��
2022/06/21,20:30,0.586,0.866,0.541,1.026,0.732,0.344,0.598,0.565,�k,2.6,��
2022/06/21,20:40,0.588,0.864,0.542,1.028,0.733,0.346,0.599,0.563,�k,3.0,��
2022/06/21,20:50,0.588,0.862,0.543,1.026,0.733,0.345,0.599,0.563,�k,2.0,��
2022/06/21,21:00,0.587,0.865,0.542,1.028,0.733,0.345,0.599,0.562,�k,1.9,��
2022/06/21,21:10,0.586,0.865,0.541,1.025,0.732,0.346,0.599,0.564,�k�k��,1.9,��
2022/06/21,21:20,0.586,0.864,0.541,1.027,0.730,0.345,0.599,0.562,�k��,1.1,��
2022/06/21,21:30,0.588,0.863,0.543,1.027,0.733,0.346,0.600,0.563,�k,1.4,��
2022/06/21,21:40,0.586,0.863,0.542,1.025,0.731,0.347,0.599,0.562,�k�k��,1.7,��
2022/06/21,21:50,0.588,0.866,0.543,1.026,0.733,0.344,0.601,0.562,�k,2.3,��
2022/06/21,22:00,0.586,0.864,0.541,1.024,0.731,0.346,0.600,0.563,�k,0.9,��
2022/06/21,22:10,0.587,0.864,0.543,1.027,0.732,0.346,0.599,0.564,�k,2.0,��
2022/06/21,22:20,0.587,0.864,0.542,1.026,0.732,0.346,0.600,0.563,�k�k��,2.0,��
2022/06/21,22:30,0.586,0.864,0.542,1.027,0.732,0.348,0.599,0.563,�k�k��,2.2,��
2022/06/21,22:40,0.586,0.864,0.543,1.028,0.730,0.344,0.600,0.563,�k�k��,1.7,��
2022/06/21,22:50,0.587,0.864,0.541,1.027,0.733,0.348,0.599,0.564,�k�k��,2.0,��
2022/06/21,23:00,0.586,0.863,0.542,1.025,0.731,0.346,0.599,0.563,�k�k��,2.3,��
2022/06/21,23:10,0.587,0.863,0.541,1.027,0.733,0.345,0.599,0.564,�k�k��,2.3,��
2022/06/21,23:20,0.585,0.863,0.543,1.025,0.732,0.346,0.599,0.562,�k�k��,2.2,��
2022/06/21,23:30,0.588,0.865,0.541,1.026,0.732,0.346,0.600,0.564,�k�k��,1.2,��
2022/06/21,23:40,0.587,0.865,0.543,1.027,0.731,0.347,0.601,0.563,�k�k��,1.1,��
2022/06/21,23:50,0.587,0.864,0.542,1.027,0.731,0.346,0.600,0.562,�k��,1.2,��
